Location: *
(58.7167°N, 26.1833°E)
Time: 18:26:36
(UTC+00:00)

NOSS 2 (A) - Pass Details

Date: 25 August 2019
Orbit: 273 x 1575 km, 63.3° (Epoch: 06 February)

Event Time Altitude Azimuth Distance (km) Brightness Sun altitude
Rises 18:18:01 0° 300° (WNW) 2,319 11.5 -5.6°
Reaches altitude 10° 18:20:15 10° 302° (WNW) 1,343 9.2 -5.9°
Maximum altitude 18:23:07 76° 29° (NNE) 331 4.2 -6.2°
Drops below altitude 10° 18:25:34 10° 116° (ESE) 1,147 6.3 -6.5°
Enters shadow 18:25:41 - 116° (ESE) 1,198 6.4 -6.5°
